Regional Weather Roundup
Issued by NWS

Home | Current Version | Previous Version | Graphics & Text | Print | Product List | Glossary Off
Versions: 1 2 3 4 5 6 7 8 9 10 11 12 13 14 15 16 17 18 19 20 21 22 23 24 25 26 27 28 29 30 31 32 33 34 35 36 37 38 39 40 41 42 43 44 45 46 47 48 49 50

886
ASUS43 KTOP 300859
RWRKS

WEATHER ROUNDUP FOR KANSAS
NATIONAL WEATHER SERVICE GOODLAND KS
400 AM CDT SUN APR 30 2017

NOTE:  "FAIR" INDICATES FEW OR NO CLOUDS BELOW 12,000 FEET WITH NO
SIGNIFICANT WEATHER AND/OR OBSTRUCTIONS TO VISIBILITY.

KSZ001>006-013>018-027>032-041>047-301000-
NORTHWEST KANSAS

CITY           SKY/WX    TMP DP  RH WIND       PRES   REMARKS
GOODLAND       LGT SNOW  32  30  92 N26G38    29.84F FOG     WCI  18
HILL CITY      LGT RAIN  34  33  96 N25G35    29.79F FOG     WCI  21
RUSSELL        LGT SNOW  38  36  92 N18G39    29.70R FOG     WCI  28
$$

KSZ061>065-074>080-084>089-301000-
SOUTHWEST KANSAS

CITY           SKY/WX    TMP DP  RH WIND       PRES   REMARKS
DODGE CITY     LGT RAIN  34  32  92 N25G44    29.62R WCI  21
ELKHART          N/A     31  38 100 NW18        N/A  WCI  19
GARDEN CITY    FOG       32  30  92 N31G43    29.66  VSB 1   WCI  17
GREAT BEND     LGT RAIN  37  36  96 N25G35    29.59F WCI  25
LIBERAL        LGT SNOW N/A N/A N/A NW31G37   29.72F VSB 3/4
$$

KSZ066>073-081>083-090>101-301000-
SOUTHEAST KANSAS

CITY           SKY/WX    TMP DP  RH WIND       PRES   REMARKS
CHANUTE        CLOUDY    56  54  93 N9        29.55F
COFFEYVILLE    LGT RAIN  61  60  97 S6        29.54F FOG
HUTCHINSON     LGT RAIN  40  38  93 NE23G35   29.56F FOG     WCI  30
MEDICINE LODGE   N/A    N/A N/A N/A NE14      29.52R
NEWTON         LGT RAIN  40  39  97 NE20G26   29.57F WCI  30
PARSONS        CLOUDY    61  59  93 VRB7      29.53F
WICHITA INTL   CLOUDY    42  42 100 N13G24    29.59S FOG
WICHITA JABRA  LGT RAIN  42  41  96 NE17G30   29.56F FOG
WICHITA MCCONL RAIN      43  41  93 NE16G24   29.57R FOG
WINFIELD       RAIN      46  45  96 NE5       29.58F FOG
$$

KSZ007>012-019>026-033>040-048>060-102>105-301000-
NORTHEAST KANSAS

CITY           SKY/WX    TMP DP  RH WIND       PRES   REMARKS
CONCORDIA      LGT SNOW  38  38 100 NE25G36   29.69F FOG     WCI  27
EMPORIA        LGT RAIN  42  42 100 NE20G32   29.61F FOG
LAWRENCE       LGT RAIN  43  43 100 N12       29.69F FOG
MANHATTAN      LGT RAIN  41  41 100 NE24G35   29.66F FOG
OLATHE IND     LGT RAIN  43  42  97 N14       29.67F FOG
OLATHE EXE     LGT RAIN  43  43 100 N14       29.66F FOG
SALINA         LGT RAIN  42  39  89 NE23G33   29.65F FOG
TOPEKA BILLARD LGT RAIN  43  43 100 NE16G23   29.69F FOG
TOPEKA FORBES  LGT RAIN  43  42  97 NE14      29.65F FOG
$$




USA.gov is the U.S. government's official web portal to all federal, state and local government web resources and services.